User: anonymous   Login
Location: Newark
(7.0858°N, 171.3717°E)
Time: 15:23:58
(UTC+00:00)
Language:

SR - Orbit

View from above orbital plane
View from above orbital plane
View from above satellite
View from above satellite

Ground track
Ground track

The orbit data is extracted from the following two-line orbital elements,

1    46U 60007B   20328.52780924 +.00000148 +00000-0 +52309-4 0  9991
2    46 066.6905 336.7133 0208639 010.6085 349.9321 14.49333535162165
Epoch (UTC): 23 November 2020 12:40:02
Eccentricity: 0.0208639
inclination: 66.6905°
perigee height: 579 km
apogee height: 876 km
right ascension of ascending node: 336.7133°
argument of perigee: 10.6085°
revolutions per day: 14.49333535
mean anomaly at epoch: 349.9321°
orbit number at epoch: 16216

The dashed part of the orbit path shows where the satellite is in the earth's shadow,  

DLR